Regional Weather Roundup
Issued by NWS Boston, MA

Home | Current Version | Previous Version | Text Only | Print | Product List | Glossary On
Versions: 1 2 3 4 5 6 7 8 9 10 11 12 13 14 15 16 17 18 19 20 21 22 23 24 25 26 27 28 29 30 31 32 33 34 35 36 37 38 39 40 41 42 43 44 45 46 47 48 49 50
000
ASUS41 KBOX 010510
RWRBOX

REGIONAL WEATHER ROUNDUP
NATIONAL WEATHER SERVICE TAUNTON MA
100 AM EDT WED JUN 01 2016

NOTE:  "FAIR" INDICATES FEW OR NO CLOUDS BELOW 12,000 FEET WITH NO
SIGNIFICANT WEATHER AND/OR OBSTRUCTIONS TO VISIBILITY.  THE FOLLOWING
OBSERVATION LOCATIONS DO NOT REPORT PRESENT WEATHER...PROVINCETOWN...
SMITHFIELD...BLOCK ISLAND...KEENE...AND OXFORD.

MAZALL-010600-
EASTERN MASSACHUSETTS

CITY           SKY/WX    TMP DP  RH WIND       PRES   REMARKS
BOSTON         CLEAR     73  50  44 W10       29.96R
BEVERLY        CLEAR     64  53  67 N3        29.96R
LAWRENCE       CLEAR     67  52  58 CALM      29.99R
BEDFORD        CLEAR     63  53  70 CALM      29.96R
BLUE HILL        N/A     67  50  54 NW13      29.97R
NORWOOD        PTCLDY    58  55  90 CALM      29.96R
MARSHFIELD     PTCLDY    66  63  88 CALM      29.95S
PLYMOUTH       PTCLDY    62  61  96 SW3       29.97R
TAUNTON        CLEAR     63  60  90 CALM      29.96S FOG
NEW BEDFORD    PTCLDY    64  61  90 S3        29.96S
$$

MAZALL-010600-
CAPE COD AND THE ISLANDS

CITY           SKY/WX    TMP DP  RH WIND       PRES   REMARKS
FALMOUTH       CLEAR     61  61 100 CALM      29.97S
HYANNIS        CLEAR     61  59  93 SW3       29.95S
CHATHAM        CLEAR     62  62 100 SW5       29.97S
PROVINCETOWN   CLEAR     61  59  93 W9        29.96R
NANTUCKET      FOG       62  60  93 W8        29.98R VSB 3/4
MARTHAS VNYRD  FOG       59  59 100 SW3       29.97F VSB 1/4
$$

MAZALL-010600-
CENTRAL AND WESTERN MASSACHUSETTS

CITY           SKY/WX    TMP DP  RH WIND       PRES   REMARKS
WORCESTER      CLEAR     65  44  46 NW14      30.01R
FITCHBURG      CLEAR     68  49  50 NW9       29.99R
ORANGE         CLEAR     56  53  90 NE5       30.00S
SPRINGFIELD    CLEAR     60  50  69 CALM      29.97S
WESTFIELD      CLEAR     57  52  83 CALM      29.99R
NORTH ADAMS    PTCLDY    53  48  83 NE5       30.03R
PITTSFIELD     CLEAR     57  45  64 CALM      30.02S
$$

RIZALL-010600-
RHODE ISLAND

CITY           SKY/WX    TMP DP  RH WIND       PRES   REMARKS
PROVIDENCE     CLEAR     67  62  84 W5        29.98R
NEWPORT        CLEAR     63  60  90 CALM      29.97S
BLOCK ISLAND   CLEAR     61  61 100 W8        29.99F
SMITHFIELD     CLEAR    N/A N/A N/A CALM      29.98S
WESTERLY       CLEAR     62  58  86 CALM      29.99S
$$

CTZALL-010600-
CONNECTICUT

CITY           SKY/WX    TMP DP  RH WIND       PRES   REMARKS
BRADLEY INTL   PTCLDY    65  47  52 CALM      29.98R
HARTFORD       PTCLDY    69  61  75 CALM      29.99R
BRIDGEPORT     CLEAR     68  61  78 N3        29.99S
DANBURY        CLEAR     62  59  90 SW3       30.02S
GROTON         CLEAR     63  63 100 CALM      29.98S
NEW HAVEN      CLEAR     64  60  87 CALM      29.99S
CHESTER        FAIR      64  61  88 CALM      30.00S
MERIDEN        CLEAR     64  61  90 CALM      30.00S
WILLIMANTIC    CLEAR     63  58  83 CALM      30.00R
OXFORD           N/A     64  46  52 N5        30.02S
$$

MEZ002-015-021-024-NHZ003-005-008-011-012-014-VTZ005-008-010600-
NORTHERN NEW ENGLAND

CITY           SKY/WX    TMP DP  RH WIND       PRES   REMARKS
PORTLAND ME    CLEAR     66  50  56 N3        29.98R
BANGOR ME      CLEAR     63  51  65 NW5       29.96S
CONCORD NH     PTCLDY    59  52  77 CALM      29.99R
MANCHESTER NH  PTCLDY    67  52  58 N5        29.97R
NASHUA NH      PTCLDY    67  54  63 NW7       29.98R
PORTSMOUTH NH  PTCLDY    62  56  81 CALM      29.96R
JAFFREY NH     CLEAR     56  52  86 CALM      30.02S
KEENE NH       CLEAR    N/A N/A N/A CALM      30.01S
BURLINGTON VT  CLOUDY    64  52  64 N14       30.05R
MT. WASHINGTON FOG       43  43 100 W32         N/A  VSB 1/16WCI  32
$$

NYZ052-076-010600-
EASTERN NEW YORK

CITY           SKY/WX    TMP DP  RH WIND       PRES   REMARKS
ALBANY         MOCLDY    61  49  64 N6        30.02R
NEW YORK CITY  MOCLDY    75  66  73 CALM      29.98R
$$

ANZALL-010600-
MARINE OBSERVATIONS

STATION/POSITION TIME  TEMP    WIND        PRES    VSBY  WAVE
                       AIR SEA DIR/SP/G                  HT/PER
                 (UTC) (F)     (DEG/KT/KT) (MB)    (MI)  (FT/S)
BOSTON BUOY      0450   66 60  240/  6/  8 1014.4R         1/10
BUZZARDS BAY     0500   60     240/ 11/ 11 1015.3F
NANTUCKET SOUND  0450   60 59  240/ 10/ 12 1014.6R         1/ 3
MASS BAY-STELLWA 0404   63 57                N/A    1 7/8  1/ 4
ISLE OF SHOALS   0500   67      20/  7/  8 1014.6R
S OF BLOCK IS    0425      59                N/A           5/ 8
$$

......................KEY.........................
  SKY/WX - SKY CONDITION/PRESENT WEATHER
  TMP    - TEMPERATURE IN FAHRENHEIT
  DWPT   - DEWPOINT IN FAHRENHEIT
  RH     - RELATIVE HUMIDITY IN PERCENT
  WIND   - DIRECTION AND SPEED IN MPH
  PRES   - MEAN SEA LEVEL PRESSURE IN INCHES OF HG
  WCI    - WIND CHILL INDEX
  VSB    - VISIBILITY IN MILES
  HX     - HEAT INDEX
  TC     - TEMPERATURE IN CELSIUS
  VRB    - VARIABLE WIND DIRECTION
  N/A    - NOT AVAILABLE



USA.gov is the U.S. government's official web portal to all federal, state and local government web resources and services.